COSMOS 1823 DEB, 29357

Orbit data source: Space-Track

COSMOS 1823 DEB, 29357 is space debris in LEO originally from a launch on Fri, 20 Feb 1987 UTC launched from the Plesetsk Missile And Space Complex (PKMTR). Debris objects in space refer to the collection of defunct objects orbiting the Earth. Examples of debris include non-operational satellites, rocket bodies, and fragments generated from explosions, collisions, or faulty payload assembly.

Loading next visibility...
Identifier
29357, 1987-020DY
Orbit
LEO
Country
Flag of CISCIS
Related business
Manufacturer
Unknown
Mission
Spacecraft
Bus & Motor
Unknown
Mass
Unknown
Launch date (UTC)
1987-02-20 (39 years ago)
Launch vehicle
Unknown
Launch site
Plesetsk Missile And Space Complex (PKMTR)
Object type
Payload
Rocket body
Debris
Shape & HBR
Unknown shape, 0.1 m
Radar Cross Section
Medium (>0.1 m² and <1 m²)

Expand to show TLE details & history
Last TLE update: 3 days ago

TLE from 3 days ago
0 COSMOS 1823 DEB
1 29357U 87020DY  26171.23759558  .00000030  00000-0  17421-3 0  9995
2 29357  73.7912 106.8139 0220053 144.9034 288.4595 12.85525895602652
Epoch: 2026-06-20T05:42Z
TLE epoch observation values (Epoch: 2026-06-20T05:42:08.258Z)
Latitude
65.27723°
Longitude
151.74041°
Altitude
1,279.974 km
Speed
7.246 km/s
True Right ascension
09h 42m 55s
True Declination
65° 09' 19"
Sunlit
Object was in daylight at epoch
Visualization orbit readout
Latitude
Unknown
Longitude
Unknown
Altitude
Unknown
Speed
Unknown
Apparent Right ascension
Unknown
Apparent Declination
Unknown
Sunlit
N/A
Visualization observer readout
Local Sidereal Time
05:18:16
Azimuth
Unknown
Elevation
Unknown
Doppler factor
Unknown
Orbital elements
Apogee altitude
1,486.481 km
Perigee altitude
1,147.807 km
Semi-major axis
7,695.281 km
Eccentricity
0.02201
Inclination
73.7912°
RAAN
106.8139°
Arg. of periapsis
144.9034°
True anomaly
286.04733°
Mean anomaly
288.4595°
Eccentric anomaly
287.25544°
Mean motion
3.21519 °/min
Orbital period
111.97 mins
BSTAR
0.00017421
Loading maneuver chart data...
Computing Atmospheric mass density...

Documentation

Showing up to 5 results
|